GW2942 Weather Reports


time (UTC)temp
C
wind
direction
speed
KPH
gust
KPH
rain 1hr
cm
rain 24hr
cm
rain mn
cm
humidity
%
barometer
mb
20260906155514 22 103 0.0 4.8 0.00 0.00 0.00 87 1020.8
20260906155015 22 66 0.0 4.8 0.00 0.00 0.00 87 1020.6
20260906154540 22 100 0.0 3.2 0.00 0.00 0.00 87 1020.5
20260906154019 22 99 0.0 4.8 0.00 0.00 0.00 88 1020.6
20260906153516 22 67 0.0 6.4 0.00 0.00 0.00 88 1020.7
20260906153032 22 144 0.0 6.4 0.00 0.00 0.00 88 1020.7
20260906152519 21 81 1.6 3.2 0.00 0.00 0.00 89 1020.7
20260906152012 21 101 0.0 3.2 0.00 0.00 0.00 89 1020.6
20260906151517 21 137 1.6 4.8 0.00 0.00 0.00 89 1020.6
20260906151011 21 132 0.0 6.4 0.00 0.00 0.00 90 1020.7
20260906150513 21 132 0.0 6.4 0.00 0.00 0.00 90 1020.6
20260906150023 21 99 0.0 3.2 0.00 0.00 0.00 90 1020.4
20260906145512 21 121 0.0 0.0 0.00 0.00 0.00 91 1020.6
20260906145016 21 98 0.0 0.0 0.00 0.00 0.00 91 1020.7
20260906144531 21 129 0.0 6.4 0.00 0.00 0.00 91 1020.5
20260906144014 21 184 0.0 6.4 0.00 0.00 0.00 91 1020.4
20260906143514 21 133 0.0 0.0 0.00 0.00 0.00 91 1020.4
20260906143029 20 133 0.0 0.0 0.00 0.00 0.00 91 1020.3
20260906142520 20 134 0.0 3.2 0.00 0.00 0.00 91 1020.2
20260906142018 20 82 0.0 3.2 0.00 0.00 0.00 91 1020.3
20260906141532 20 99 0.0 6.4 0.00 0.00 0.00 91 1020.2
20260906141013 20 150 0.0 6.4 0.00 0.00 0.00 91 1020.1
20260906140511 20 115 1.6 6.4 0.00 0.00 0.00 91 1020.1
20260906140031 20 19 0.0 3.2 0.00 0.00 0.00 91 1020.0
20260906135514 20 103 0.0 4.8 0.00 0.00 0.00 91 1020.1
20260906135005 20 228 1.6 4.8 0.00 0.00 0.00 91 1020.2
20260906134504 20 70 1.6 4.8 0.00 0.00 0.00 91 1020.2
20260906134004 20 91 3.2 6.4 0.00 0.00 0.00 91 1020.3
20260906133505 20 48 1.6 6.4 0.00 0.00 0.00 91 1020.1
20260906133013 20 109 1.6 4.8 0.00 0.00 0.00 92 1020.1
20260906132508 20 33 3.2 6.4 0.00 0.00 0.00 92 1020.1
20260906132007 20 96 0.0 6.4 0.00 0.00 0.00 92 1020.0
20260906131512 20 98 3.2 6.4 0.00 0.00 0.00 92 1019.9
20260906131009 20 18 1.6 4.8 0.00 0.00 0.00 92 1019.8
20260906130512 20 59 1.6 6.4 0.00 0.00 0.00 92 1019.7
20260906130031 20 49 1.6 6.4 0.00 0.00 0.00 92 1019.7
20260906125513 20 68 0.0 4.8 0.00 0.00 0.00 93 1019.6
20260906125016 20 73 1.6 3.2 0.00 0.00 0.00 93 1019.5
20260906124526 20 71 0.0 4.8 0.00 0.00 0.00 93 1019.3
20260906124016 20 88 0.0 4.8 0.00 0.00 0.00 93 1019.3
20260906123502 20 61 0.0 3.2 0.00 0.00 0.00 93 1019.2
20260906123007 20 59 0.0 1.6 0.00 0.00 0.00 93 1019.3
20260906122505 20 34 0.0 0.0 0.00 0.00 0.00 92 1019.3
20260906122006 20 63 0.0 3.2 0.00 0.00 0.00 92 1019.2
20260906121509 20 55 0.0 3.2 0.00 0.00 0.00 92 1019.3
20260906121009 20 65 0.0 3.2 0.00 0.00 0.00 92 1019.2
20260906120510 20 35 0.0 0.0 0.00 0.00 0.00 92 1019.2
20260906120018 20 57 0.0 0.0 0.00 0.00 0.00 92 1019.2
20260906115511 20 62 0.0 0.0 0.00 0.00 0.00 92 1019.2
20260906115014 20 52 0.0 0.0 0.00 0.00 0.00 92 1019.1
20260906114525 20 63 0.0 0.0 0.00 0.00 0.00 92 1019.1
20260906114014 20 27 0.0 4.8 0.00 0.00 0.00 92 1019.0
20260906113515 20 19 0.0 4.8 0.00 0.00 0.00 92 1019.1
20260906113033 20 59 0.0 0.0 0.00 0.00 0.00 92 1019.2
20260906112506 20 63 0.0 1.6 0.00 0.00 0.00 92 1019.2
20260906112003 20 20 0.0 1.6 0.00 0.00 0.00 92 1019.1
20260906111509 20 28 0.0 3.2 0.00 0.00 0.00 92 1018.9
20260906111008 20 75 0.0 3.2 0.00 0.00 0.00 92 1018.7
20260906110508 20 67 0.0 3.2 0.00 0.00 0.00 92 1018.6
20260906110016 20 69 0.0 0.0 0.00 0.00 0.00 92 1018.8
20260906105511 20 60 0.0 3.2 0.00 0.00 0.00 92 1018.6
20260906105012 20 67 0.0 3.2 0.00 0.00 0.00 92 1018.5
20260906104534 20 64 0.0 0.0 0.00 0.00 0.00 92 1018.6
20260906104011 20 57 0.0 3.2 0.00 0.00 0.00 92 1018.6
20260906103515 20 33 0.0 3.2 0.00 0.00 0.00 92 1018.5
20260906103041 20 65 0.0 3.2 0.00 0.00 0.00 92 1018.4
20260906102516 20 61 1.6 3.2 0.00 0.00 0.00 92 1018.4
20260906102018 20 51 0.0 1.6 0.00 0.00 0.00 92 1018.3
20260906101529 20 62 0.0 0.0 0.00 0.00 0.00 92 1018.2
20260906101006 20 67 0.0 4.8 0.00 0.00 0.00 92 1018.2
20260906100506 21 57 0.0 4.8 0.00 0.00 0.00 92 1018.3
20260906100024 21 38 1.6 4.8 0.00 0.00 0.00 92 1018.1
20260906095509 21 138 0.0 3.2 0.00 0.00 0.00 92 1018.1
20260906095016 21 63 1.6 3.2 0.00 0.00 0.00 91 1017.9
20260906094519 21 56 0.0 6.4 0.00 0.00 0.00 91 1017.9
20260906094015 21 52 1.6 8.0 0.00 0.00 0.00 91 1017.9
20260906093512 21 69 0.0 8.0 0.00 0.00 0.00 91 1017.8
20260906093035 21 50 1.6 4.8 0.00 0.00 0.00 91 1017.7
20260906092512 21 25 0.0 4.8 0.00 0.00 0.00 91 1017.7
20260906092016 21 101 1.6 4.8 0.00 0.00 0.00 91 1017.6
20260906091536 21 61 0.0 4.8 0.00 0.00 0.00 91 1017.4
20260906091016 21 45 1.6 4.8 0.00 0.00 0.00 91 1017.5
20260906090519 21 63 1.6 4.8 0.00 0.00 0.00 91 1017.5
20260906090033 21 66 0.0 4.8 0.00 0.00 0.00 91 1017.5
20260906085510 21 54 0.0 4.8 0.00 0.00 0.00 91 1017.6
20260906085007 21 86 1.6 4.8 0.00 0.00 0.00 91 1017.5
20260906084517 21 55 1.6 4.8 0.00 0.00 0.00 90 1017.6
20260906084011 21 48 0.0 3.2 0.00 0.00 0.00 90 1017.8
20260906083513 22 35 1.6 4.8 0.00 0.00 0.00 90 1017.7
20260906083023 22 82 1.6 4.8 0.00 0.00 0.00 90 1017.6
20260906082513 22 51 0.0 3.2 0.00 0.00 0.00 90 1017.6
20260906082014 22 66 0.0 4.8 0.00 0.00 0.00 90 1017.5
20260906081526 22 54 3.2 4.8 0.00 0.00 0.00 90 1017.7
20260906081016 22 42 1.6 3.2 0.00 0.00 0.00 90 1017.6
20260906080516 22 98 0.0 4.8 0.00 0.00 0.00 90 1017.6
20260906080031 22 73 1.6 4.8 0.00 0.00 0.00 90 1017.6
20260906075518 22 24 1.6 4.8 0.00 0.00 0.00 90 1017.7
20260906075018 22 34 1.6 4.8 0.00 0.00 0.00 90 1017.7
20260906074513 22 67 1.6 4.8 0.00 0.00 0.00 89 1017.6
20260906074010 22 58 1.6 4.8 0.00 0.00 0.00 89 1017.7
20260906073509 22 51 1.6 4.8 0.00 0.00 0.00 89 1017.6
20260906073023 22 51 0.0 6.4 0.00 0.00 0.00 89 1017.7
20260906072512 22 83 1.6 6.4 0.00 0.00 0.00 89 1017.8
20260906072013 22 60 1.6 8.0 0.00 0.00 0.00 89 1018.0
20260906071528 22 46 3.2 8.0 0.00 0.00 0.00 88 1017.8
20260906071016 22 132 1.6 4.8 0.00 0.00 0.00 88 1017.8
20260906070517 22 76 1.6 3.2 0.00 0.00 0.00 88 1017.9
20260906070031 22 68 0.0 4.8 0.00 0.00 0.00 88 1018.0
20260906065516 22 73 1.6 4.8 0.00 0.00 0.00 88 1018.0
20260906065020 22 46 1.6 4.8 0.00 0.00 0.00 88 1018.0
20260906064530 23 71 1.6 4.8 0.00 0.00 0.00 87 1017.9
20260906064023 23 69 1.6 3.2 0.00 0.00 0.00 87 1017.9
20260906063517 23 32 1.6 3.2 0.00 0.00 0.00 87 1017.8
20260906063024 23 80 0.0 4.8 0.00 0.00 0.00 87 1018.1
20260906062511 23 30 1.6 4.8 0.00 0.00 0.00 87 1018.1
20260906062013 23 57 1.6 8.0 0.00 0.00 0.00 87 1018.0
20260906061523 23 18 1.6 8.0 0.00 0.00 0.00 87 1018.1
20260906061013 23 57 3.2 8.0 0.00 0.00 0.00 86 1018.0
20260906060515 23 67 1.6 4.8 0.00 0.00 0.00 86 1017.9
20260906060028 23 74 1.6 4.8 0.00 0.00 0.00 86 1018.1
20260906055517 23 67 1.6 6.4 0.00 0.00 0.00 86 1018.1
20260906055016 23 61 1.6 6.4 0.00 0.00 0.00 86 1018.1
20260906054549 23 55 1.6 6.4 0.00 0.00 0.00 86 1017.9
20260906054017 23 53 1.6 4.8 0.00 0.00 0.00 86 1017.8
20260906053517 23 78 1.6 3.2 0.00 0.00 0.00 85 1017.7
20260906053032 23 34 0.0 3.2 0.00 0.00 0.00 86 1017.8
20260906052518 23 51 0.0 4.8 0.00 0.00 0.00 86 1018.0
20260906052017 23 51 1.6 6.4 0.00 0.00 0.00 85 1017.9
20260906051529 23 76 1.6 6.4 0.00 0.00 0.00 85 1017.8
20260906051003 23 27 1.6 3.2 0.00 0.00 0.00 85 1017.8
20260906050503 23 61 1.6 6.4 0.00 0.00 0.00 85 1017.7
20260906050004 23 56 1.6 6.4 0.00 0.00 0.00 85 1017.7
20260906045505 23 64 1.6 3.2 0.00 0.00 0.00 85 1017.6
20260906045003 23 65 0.0 4.8 0.00 0.00 0.00 85 1017.5
20260906044503 23 51 1.6 4.8 0.00 0.00 0.00 85 1017.4
20260906044003 23 46 1.6 4.8 0.00 0.00 0.00 85 1017.6
20260906043505 23 69 1.6 4.8 0.00 0.00 0.00 85 1017.4
20260906043005 23 87 1.6 4.8 0.00 0.00 0.00 85 1017.4
20260906042503 23 13 1.6 3.2 0.00 0.00 0.00 85 1017.4
20260906042004 23 65 1.6 3.2 0.00 0.00 0.00 84 1017.4
20260906041504 23 30 1.6 3.2 0.00 0.00 0.00 84 1017.4
20260906041005 23 64 1.6 3.2 0.00 0.00 0.00 84 1017.4
20260906040507 24 58 0.0 4.8 0.00 0.00 0.00 84 1017.5
20260906040004 24 37 1.6 4.8 0.00 0.00 0.00 84 1017.4
20260906035503 24 68 1.6 3.2 0.00 0.00 0.00 84 1017.4
20260906035005 24 59 1.6 4.8 0.00 0.00 0.00 84 1017.4
20260906034503 24 40 1.6 4.8 0.00 0.00 0.00 84 1017.3
20260906034004 24 55 1.6 3.2 0.00 0.00 0.00 84 1017.2
20260906033504 24 78 0.0 3.2 0.00 0.00 0.00 84 1017.1
20260906033004 24 22 0.0 3.2 0.00 0.00 0.00 84 1017.1
20260906032503 24 65 1.6 3.2 0.00 0.00 0.00 84 1017.0
20260906032004 24 57 1.6 4.8 0.00 0.00 0.00 84 1017.0
20260906031511 24 49 1.6 8.0 0.00 0.00 0.00 84 1016.9
20260906031007 24 55 3.2 8.0 0.00 0.00 0.00 84 1016.9
20260906030504 24 53 3.2 4.8 0.00 0.00 0.00 84 1016.8
20260906030010 24 9 1.6 3.2 0.00 0.00 0.00 84 1016.9
20260906025505 24 54 0.0 3.2 0.00 0.00 0.00 84 1016.8
20260906025010 24 69 1.6 3.2 0.00 0.00 0.00 84 1016.9
20260906024519 24 22 0.0 3.2 0.00 0.00 0.00 84 1016.8
20260906024005 24 61 0.0 3.2 0.00 0.00 0.00 84 1016.7
20260906023505 24 53 0.0 3.2 0.00 0.00 0.00 84 1016.6
20260906023007 25 99 1.6 4.8 0.00 0.00 0.00 84 1016.6
20260906022505 25 61 1.6 6.4 0.00 0.00 0.00 84 1016.6
20260906022006 25 34 1.6 6.4 0.00 0.00 0.00 84 1016.5
20260906021507 25 52 1.6 6.4 0.00 0.00 0.00 84 1016.4
20260906021005 25 67 1.6 6.4 0.00 0.00 0.00 83 1016.3
20260906020505 25 115 1.6 4.8 0.00 0.00 0.00 83 1016.1
20260906020006 25 34 1.6 4.8 0.00 0.00 0.00 83 1016.0
20260906015506 25 55 1.6 4.8 0.00 0.00 0.00 82 1015.9
20260906015004 25 40 1.6 4.8 0.00 0.00 0.00 82 1015.9
20260906014510 25 78 1.6 8.0 0.00 0.00 0.00 82 1015.8
20260906014005 25 52 3.2 8.0 0.00 0.00 0.00 81 1015.9
20260906013506 26 61 1.6 6.4 0.00 0.00 0.00 81 1015.8
20260906013008 26 42 1.6 6.4 0.00 0.00 0.00 81 1015.8
20260906012509 26 66 3.2 6.4 0.00 0.00 0.00 81 1015.8
20260906012006 26 81 3.2 6.4 0.00 0.00 0.00 80 1015.8
20260906011508 26 63 0.0 3.2 0.00 0.00 0.00 81 1015.7
20260906011005 26 63 0.0 1.6 0.00 0.00 0.00 81 1015.7
20260906010505 26 44 0.0 4.8 0.00 0.00 0.00 80 1015.8
20260906010024 26 20 1.6 4.8 0.00 0.00 0.00 80 1015.7
20260906005506 26 65 1.6 4.8 0.00 0.00 0.00 80 1015.6
20260906005006 26 60 1.6 3.2 0.00 0.00 0.00 80 1015.7
20260906004507 26 69 1.6 3.2 0.00 0.00 0.00 80 1015.6
20260906004006 26 61 1.6 4.8 0.00 0.00 0.00 80 1015.5
20260906003506 26 88 0.0 4.8 0.00 0.00 0.00 79 1015.6
20260906003006 26 79 1.6 6.4 0.00 0.00 0.00 79 1015.6
20260906002505 27 65 1.6 6.4 0.00 0.00 0.00 78 1015.6
20260906002008 27 59 1.6 4.8 0.00 0.00 0.00 78 1015.6
20260906001509 27 71 1.6 6.4 0.00 0.00 0.00 78 1015.6
20260906001007 27 23 3.2 9.7 0.00 0.00 0.00 78 1015.6
20260906000507 27 48 1.6 9.7 0.00 0.00 0.00 78 1015.5
20260906000016 27 78 3.2 9.7 0.00 0.00 0.00 78 1015.5
20260905235509 27 59 4.8 9.7 0.00 0.00 0.00 78 1015.5
20260905235003 28 342 3.2 9.7 0.00 0.00 0.00 78 1015.4
20260905234508 28 63 3.2 9.7 0.00 0.00 0.00 78 1015.3
20260905234009 28 65 4.8 9.7 0.00 0.00 0.00 78 1015.3
20260905233507 28 48 4.8 12.9 0.00 0.00 0.00 77 1015.3
20260905233011 28 41 4.8 12.9 0.00 0.00 0.00 76 1015.3
20260905232507 29 65 3.2 12.9 0.00 0.00 0.00 76 1015.3
20260905232008 29 342 1.6 9.7 0.00 0.00 0.00 76 1015.2
20260905231510 30 59 4.8 8.0 0.00 0.00 0.00 75 1015.2
20260905231005 30 71 1.6 9.7 0.00 0.00 0.00 75 1015.2
20260905230507 30 86 4.8 9.7 0.00 0.00 0.00 75 1015.1
20260905230022 30 69 4.8 16.1 0.00 0.00 0.00 74 1015.0
20260905225508 31 73 4.8 16.1 0.00 0.00 0.00 74 1014.9
20260905225009 31 43 4.8 11.3 0.00 0.00 0.00 73 1014.8
20260905224518 31 62 3.2 14.5 0.00 0.00 0.00 72 1014.7
20260905224007 31 28 4.8 14.5 0.00 0.00 0.00 71 1014.7
20260905223510 31 59 3.2 11.3 0.00 0.00 0.00 69 1014.5
20260905223016 32 84 3.2 11.3 0.00 0.00 0.00 67 1014.6
20260905222511 32 138 3.2 8.0 0.00 0.00 0.00 68 1014.5
20260905222009 32 78 4.8 9.7 0.00 0.00 0.00 67 1014.5
20260905221511 32 61 3.2 9.7 0.00 0.00 0.00 67 1014.5
20260905221006 32 50 1.6 12.9 0.00 0.00 0.00 67 1014.5
20260905220505 32 65 4.8 12.9 0.00 0.00 0.00 65 1014.5
20260905220007 32 40 3.2 9.7 0.00 0.00 0.00 67 1014.5
20260905215507 32 46 3.2 11.3 0.00 0.00 0.00 67 1014.6
20260905215008 32 65 4.8 11.3 0.00 0.00 0.00 66 1014.6
20260905214512 32 9 4.8 8.0 0.00 0.00 0.00 65 1014.7
20260905214010 32 56 3.2 6.4 0.00 0.00 0.00 65 1014.7
20260905213510 32 34 1.6 6.4 0.00 0.00 0.00 65 1014.7
20260905213016 32 78 3.2 6.4 0.00 0.00 0.00 64 1014.7
20260905212510 32 28 3.2 6.4 0.00 0.00 0.00 66 1014.6
20260905212009 32 17 1.6 8.0 0.00 0.00 0.00 66 1014.7
20260905211539 32 83 4.8 8.0 0.00 0.00 0.00 64 1014.7
20260905211013 32 66 3.2 8.0 0.00 0.00 0.00 66 1014.7
20260905210512 32 69 1.6 8.0 0.00 0.00 0.00 69 1014.7
20260905210017 32 20 3.2 8.0 0.00 0.00 0.00 68 1014.8
20260905205505 32 65 4.8 6.4 0.00 0.00 0.00 67 1014.9
20260905205008 32 65 1.6 6.4 0.00 0.00 0.00 70 1014.9
20260905204511 32 59 1.6 8.0 0.00 0.00 0.00 69 1014.9
20260905204007 32 30 3.2 8.0 0.00 0.00 0.00 69 1015.0
20260905203509 31 151 1.6 4.8 0.00 0.00 0.00 68 1014.9
20260905203016 31 76 1.6 4.8 0.00 0.00 0.00 69 1014.9
20260905202510 31 19 1.6 6.4 0.00 0.00 0.00 70 1015.0
20260905202010 31 78 1.6 8.0 0.00 0.00 0.00 70 1015.1
20260905201525 31 338 3.2 9.7 0.00 0.00 0.00 70 1015.0
20260905201011 32 53 4.8 9.7 0.00 0.00 0.00 69 1015.0
20260905200513 32 28 3.2 6.4 0.00 0.00 0.00 70 1015.0
20260905200020 32 60 1.6 4.8 0.00 0.00 0.00 69 1015.2
20260905195512 32 64 1.6 4.8 0.00 0.00 0.00 69 1015.3
20260905195005 32 352 0.0 4.8 0.00 0.00 0.00 71 1015.4
20260905194509 31 31 3.2 4.8 0.00 0.00 0.00 71 1015.5
20260905194007 31 81 0.0 4.8 0.00 0.00 0.00 71 1015.5
20260905193506 31 65 1.6 4.8 0.00 0.00 0.00 70 1015.5
20260905193014 31 351 0.0 3.2 0.00 0.00 0.00 71 1015.6
20260905192512 31 57 1.6 3.2 0.00 0.00 0.00 72 1015.6
20260905192009 31 5 1.6 4.8 0.00 0.00 0.00 72 1015.7
20260905191520 31 54 0.0 9.7 0.00 0.00 0.00 71 1015.5
20260905191012 31 53 3.2 9.7 0.00 0.00 0.00 70 1015.5
20260905190511 31 76 1.6 4.8 0.00 0.00 0.00 71 1015.6
20260905190004 31 25 1.6 4.8 0.00 0.00 0.00 72 1015.7
20260905185505 31 11 0.0 3.2 0.00 0.00 0.00 72 1015.8
20260905185006 31 20 1.6 4.8 0.00 0.00 0.00 72 1015.9
20260905184509 31 13 1.6 4.8 0.00 0.00 0.00 72 1015.9
20260905184004 31 34 1.6 4.8 0.00 0.00 0.00 71 1015.9
20260905183507 31 55 1.6 6.4 0.00 0.00 0.00 71 1016.1
20260905183020 31 120 3.2 6.4 0.00 0.00 0.00 72 1016.0
20260905182508 31 38 1.6 3.2 0.00 0.00 0.00 72 1016.0
20260905182012 31 22 1.6 4.8 0.00 0.00 0.00 72 1016.1
20260905181517 31 67 3.2 4.8 0.00 0.00 0.00 72 1015.9
20260905181014 31 78 1.6 4.8 0.00 0.00 0.00 72 1015.9
20260905180517 31 9 1.6 6.4 0.00 0.00 0.00 73 1015.9
20260905180024 30 57 3.2 6.4 0.00 0.00 0.00 73 1016.0
20260905175518 30 45 1.6 4.8 0.00 0.00 0.00 73 1016.1
20260905175013 30 55 1.6 6.4 0.00 0.00 0.00 73 1015.9
20260905174505 30 50 3.2 6.4 0.00 0.00 0.00 73 1015.9
20260905174007 30 28 1.6 8.0 0.00 0.00 0.00 73 1015.9
20260905173507 30 72 3.2 8.0 0.00 0.00 0.00 73 1015.8
20260905173027 30 56 3.2 6.4 0.00 0.00 0.00 74 1015.8
20260905172506 30 54 1.6 6.4 0.00 0.00 0.00 75 1016.0
20260905172011 30 78 1.6 11.3 0.00 0.00 0.00 74 1016.0
20260905171514 30 67 4.8 11.3 0.00 0.00 0.00 74 1016.1
20260905171011 30 67 3.2 6.4 0.00 0.00 0.00 75 1016.1
20260905170515 30 80 1.6 4.8 0.00 0.00 0.00 75 1016.2
20260905170021 30 52 0.0 6.4 0.00 0.00 0.00 75 1016.2
20260905165515 30 26 1.6 6.4 0.00 0.00 0.00 76 1016.2
20260905165017 30 17 3.2 6.4 0.00 0.00 0.00 76 1016.2
20260905164527 30 66 1.6 6.4 0.00 0.00 0.00 76 1016.4
20260905164015 30 56 3.2 6.4 0.00 0.00 0.00 75 1016.2
20260905163506 30 59 3.2 6.4 0.00 0.00 0.00 76 1016.3
20260905163005 30 29 3.2 4.8 0.00 0.00 0.00 76 1016.4
20260905162508 30 88 1.6 4.8 0.00 0.00 0.00 77 1016.4
20260905162008 30 44 1.6 8.0 0.00 0.00 0.00 78 1016.3
20260905161515 30 55 1.6 8.0 0.00 0.00 0.00 78 1016.3
20260905161013 30 76 3.2 11.3 0.00 0.00 0.00 77 1016.3
20260905160511 30 32 3.2 11.3 0.00 0.00 0.00 76 1016.3
20260905160021 30 44 1.6 4.8 0.00 0.00 0.00 78 1016.2